#datetime,building,power
2023-08-14T00:00:00,mnr,5.28
2023-08-14T00:01:00,mnr,5.35
2023-08-14T00:02:00,mnr,5.58
2023-08-14T00:03:00,mnr,5.31
2023-08-14T00:04:00,mnr,5.31
2023-08-14T00:05:00,mnr,5.12
2023-08-14T00:06:00,mnr,5.16
2023-08-14T00:07:00,mnr,5.06
2023-08-14T00:08:00,mnr,4.63
2023-08-14T00:09:00,mnr,5.13
2023-08-14T00:10:00,mnr,4.97
2023-08-14T00:11:00,mnr,4.57
2023-08-14T00:12:00,mnr,5.61
2023-08-14T00:13:00,mnr,5.05
2023-08-14T00:14:00,mnr,5.77
2023-08-14T00:15:00,mnr,7.20
2023-08-14T00:16:00,mnr,7.20
2023-08-14T00:17:00,mnr,7.28
2023-08-14T00:18:00,mnr,7.79
2023-08-14T00:19:00,mnr,7.20
2023-08-14T00:20:00,mnr,8.06
2023-08-14T00:21:00,mnr,7.13
2023-08-14T00:22:00,mnr,7.13
2023-08-14T00:23:00,mnr,7.82
2023-08-14T00:24:00,mnr,7.44
2023-08-14T00:25:00,mnr,7.18
2023-08-14T00:26:00,mnr,7.07
2023-08-14T00:27:00,mnr,6.89
2023-08-14T00:28:00,mnr,6.29
2023-08-14T00:29:00,mnr,6.33
2023-08-14T00:30:00,mnr,5.84
2023-08-14T00:31:00,mnr,6.28
2023-08-14T00:32:00,mnr,5.68
2023-08-14T00:33:00,mnr,5.91
2023-08-14T00:34:00,mnr,6.41
2023-08-14T00:35:00,mnr,5.70
2023-08-14T00:36:00,mnr,5.54
2023-08-14T00:37:00,mnr,6.18
2023-08-14T00:38:00,mnr,4.94
2023-08-14T00:39:00,mnr,4.95
2023-08-14T00:40:00,mnr,5.23
2023-08-14T00:41:00,mnr,5.49
2023-08-14T00:42:00,mnr,4.91
2023-08-14T00:43:00,mnr,4.96
2023-08-14T00:44:00,mnr,4.97
2023-08-14T00:45:00,mnr,5.75
2023-08-14T00:46:00,mnr,4.83
2023-08-14T00:47:00,mnr,4.82
2023-08-14T00:48:00,mnr,5.49
2023-08-14T00:49:00,mnr,4.85
2023-08-14T00:50:00,mnr,4.88
2023-08-14T00:51:00,mnr,4.37
2023-08-14T00:52:00,mnr,4.55
2023-08-14T00:53:00,mnr,4.36
2023-08-14T00:54:00,mnr,4.36
2023-08-14T00:55:00,mnr,4.40
2023-08-14T00:56:00,mnr,4.56
2023-08-14T00:57:00,mnr,4.99
2023-08-14T00:58:00,mnr,4.35
2023-08-14T00:59:00,mnr,4.42
2023-08-14T01:00:00,mnr,4.36
2023-08-14T01:01:00,mnr,4.32
2023-08-14T01:02:00,mnr,4.86
2023-08-14T01:03:00,mnr,4.47
2023-08-14T01:04:00,mnr,4.46
2023-08-14T01:05:00,mnr,4.46
2023-08-14T01:06:00,mnr,4.52
2023-08-14T01:07:00,mnr,5.21
2023-08-14T01:08:00,mnr,4.68
2023-08-14T01:09:00,mnr,4.39
2023-08-14T01:10:00,mnr,5.05
2023-08-14T01:11:00,mnr,4.38
2023-08-14T01:12:00,mnr,4.45
2023-08-14T01:13:00,mnr,4.48
2023-08-14T01:14:00,mnr,4.63
2023-08-14T01:15:00,mnr,5.33
2023-08-14T01:16:00,mnr,4.72
2023-08-14T01:17:00,mnr,4.69
2023-08-14T01:18:00,mnr,4.61
2023-08-14T01:19:00,mnr,4.62
2023-08-14T01:20:00,mnr,4.59
2023-08-14T01:21:00,mnr,5.59
2023-08-14T01:22:00,mnr,4.66
2023-08-14T01:23:00,mnr,4.63
2023-08-14T01:24:00,mnr,4.67
2023-08-14T01:25:00,mnr,4.56
2023-08-14T01:26:00,mnr,4.54
2023-08-14T01:27:00,mnr,4.53
2023-08-14T01:28:00,mnr,4.57
2023-08-14T01:29:00,mnr,4.60
2023-08-14T01:30:00,mnr,4.64
2023-08-14T01:31:00,mnr,4.53
2023-08-14T01:32:00,mnr,4.53
2023-08-14T01:33:00,mnr,4.49
2023-08-14T01:34:00,mnr,4.70
2023-08-14T01:35:00,mnr,4.42
2023-08-14T01:36:00,mnr,4.40
2023-08-14T01:37:00,mnr,4.38
2023-08-14T01:38:00,mnr,4.88
2023-08-14T01:39:00,mnr,5.40
2023-08-14T01:40:00,mnr,4.91
2023-08-14T01:41:00,mnr,4.92
2023-08-14T01:42:00,mnr,5.48
2023-08-14T01:43:00,mnr,5.08
2023-08-14T01:44:00,mnr,4.93
2023-08-14T01:45:00,mnr,4.90
2023-08-14T01:46:00,mnr,4.90
2023-08-14T01:47:00,mnr,4.96
2023-08-14T01:48:00,mnr,4.88
2023-08-14T01:49:00,mnr,4.87
2023-08-14T01:50:00,mnr,5.05
2023-08-14T01:51:00,mnr,4.87
2023-08-14T01:52:00,mnr,4.83
2023-08-14T01:53:00,mnr,5.51
2023-08-14T01:54:00,mnr,4.84
2023-08-14T01:55:00,mnr,4.88
2023-08-14T01:56:00,mnr,5.00
2023-08-14T01:57:00,mnr,4.98
2023-08-14T01:58:00,mnr,4.83
2023-08-14T01:59:00,mnr,4.78
2023-08-14T02:00:00,mnr,4.76
2023-08-14T02:01:00,mnr,4.76
2023-08-14T02:02:00,mnr,4.81
2023-08-14T02:03:00,mnr,4.80
2023-08-14T02:04:00,mnr,4.76
2023-08-14T02:05:00,mnr,4.78
2023-08-14T02:06:00,mnr,4.83
2023-08-14T02:07:00,mnr,4.82
2023-08-14T02:08:00,mnr,4.86
2023-08-14T02:09:00,mnr,5.32
2023-08-14T02:10:00,mnr,4.84
2023-08-14T02:11:00,mnr,4.85
2023-08-14T02:12:00,mnr,6.11
2023-08-14T02:13:00,mnr,5.68
2023-08-14T02:14:00,mnr,4.98
2023-08-14T02:15:00,mnr,5.10
2023-08-14T02:16:00,mnr,5.01
2023-08-14T02:17:00,mnr,5.75
2023-08-14T02:18:00,mnr,4.54
2023-08-14T02:19:00,mnr,4.44
2023-08-14T02:20:00,mnr,4.45
2023-08-14T02:21:00,mnr,4.48
2023-08-14T02:22:00,mnr,4.46
2023-08-14T02:23:00,mnr,4.41
2023-08-14T02:24:00,mnr,4.63
2023-08-14T02:25:00,mnr,4.39
2023-08-14T02:26:00,mnr,4.27
2023-08-14T02:27:00,mnr,5.00
2023-08-14T02:28:00,mnr,5.05
2023-08-14T02:29:00,mnr,4.42
2023-08-14T02:30:00,mnr,4.31
2023-08-14T02:31:00,mnr,5.10
2023-08-14T02:32:00,mnr,4.44
2023-08-14T02:33:00,mnr,4.47
2023-08-14T02:34:00,mnr,4.46
2023-08-14T02:35:00,mnr,5.23
2023-08-14T02:36:00,mnr,4.51
2023-08-14T02:37:00,mnr,4.42
2023-08-14T02:38:00,mnr,4.46
2023-08-14T02:39:00,mnr,4.61
2023-08-14T02:40:00,mnr,4.49
2023-08-14T02:41:00,mnr,4.46
2023-08-14T02:42:00,mnr,4.45
2023-08-14T02:43:00,mnr,4.70
2023-08-14T02:44:00,mnr,4.61
2023-08-14T02:45:00,mnr,5.18
2023-08-14T02:46:00,mnr,4.83
2023-08-14T02:47:00,mnr,4.62
2023-08-14T02:48:00,mnr,4.48
2023-08-14T02:49:00,mnr,4.55
2023-08-14T02:50:00,mnr,4.50
2023-08-14T02:51:00,mnr,4.57
2023-08-14T02:52:00,mnr,4.52
2023-08-14T02:53:00,mnr,4.54
2023-08-14T02:54:00,mnr,5.23
2023-08-14T02:55:00,mnr,4.55
2023-08-14T02:56:00,mnr,4.52
2023-08-14T02:57:00,mnr,4.52
2023-08-14T02:58:00,mnr,4.50
2023-08-14T02:59:00,mnr,4.87
2023-08-14T03:00:00,mnr,4.43
2023-08-14T03:01:00,mnr,4.45
2023-08-14T03:02:00,mnr,4.51
2023-08-14T03:03:00,mnr,4.54
2023-08-14T03:04:00,mnr,4.80
2023-08-14T03:05:00,mnr,4.84
2023-08-14T03:06:00,mnr,4.90
2023-08-14T03:07:00,mnr,5.53
2023-08-14T03:08:00,mnr,4.94
2023-08-14T03:09:00,mnr,5.29
2023-08-14T03:10:00,mnr,4.93
2023-08-14T03:11:00,mnr,5.01
2023-08-14T03:12:00,mnr,5.01
2023-08-14T03:13:00,mnr,4.96
2023-08-14T03:14:00,mnr,4.93
2023-08-14T03:15:00,mnr,6.38
2023-08-14T03:16:00,mnr,5.48
2023-08-14T03:17:00,mnr,5.41
2023-08-14T03:18:00,mnr,4.96
2023-08-14T03:19:00,mnr,4.98
2023-08-14T03:20:00,mnr,5.02
2023-08-14T03:21:00,mnr,5.57
2023-08-14T03:22:00,mnr,4.84
2023-08-14T03:23:00,mnr,4.87
2023-08-14T03:24:00,mnr,4.90
2023-08-14T03:25:00,mnr,4.93
2023-08-14T03:26:00,mnr,4.91
2023-08-14T03:27:00,mnr,4.94
2023-08-14T03:28:00,mnr,4.91
2023-08-14T03:29:00,mnr,4.91
2023-08-14T03:30:00,mnr,4.96
2023-08-14T03:31:00,mnr,4.85
2023-08-14T03:32:00,mnr,4.92
2023-08-14T03:33:00,mnr,5.94
2023-08-14T03:34:00,mnr,4.87
2023-08-14T03:35:00,mnr,4.89
2023-08-14T03:36:00,mnr,5.67
2023-08-14T03:37:00,mnr,5.53
2023-08-14T03:38:00,mnr,4.83
2023-08-14T03:39:00,mnr,4.83
2023-08-14T03:40:00,mnr,4.81
2023-08-14T03:41:00,mnr,4.84
2023-08-14T03:42:00,mnr,4.87
2023-08-14T03:43:00,mnr,4.40
2023-08-14T03:44:00,mnr,5.06
2023-08-14T03:45:00,mnr,4.48
2023-08-14T03:46:00,mnr,4.50
2023-08-14T03:47:00,mnr,4.54
2023-08-14T03:48:00,mnr,4.51
2023-08-14T03:49:00,mnr,4.53
2023-08-14T03:50:00,mnr,5.71
2023-08-14T03:51:00,mnr,4.43
2023-08-14T03:52:00,mnr,5.17
2023-08-14T03:53:00,mnr,4.45
2023-08-14T03:54:00,mnr,4.38
2023-08-14T03:55:00,mnr,4.79
2023-08-14T03:56:00,mnr,4.44
2023-08-14T03:57:00,mnr,4.40
2023-08-14T03:58:00,mnr,4.94
2023-08-14T03:59:00,mnr,4.36
2023-08-14T04:00:00,mnr,4.33
2023-08-14T04:01:00,mnr,4.44
2023-08-14T04:02:00,mnr,4.45
2023-08-14T04:03:00,mnr,4.89
2023-08-14T04:04:00,mnr,5.12
2023-08-14T04:05:00,mnr,4.41
2023-08-14T04:06:00,mnr,4.54
2023-08-14T04:07:00,mnr,4.41
2023-08-14T04:08:00,mnr,4.58
2023-08-14T04:09:00,mnr,4.50
2023-08-14T04:10:00,mnr,4.46
2023-08-14T04:11:00,mnr,4.41
2023-08-14T04:12:00,mnr,4.29
2023-08-14T04:13:00,mnr,4.52
2023-08-14T04:14:00,mnr,4.54
2023-08-14T04:15:00,mnr,4.56
2023-08-14T04:16:00,mnr,4.39
2023-08-14T04:17:00,mnr,4.41
2023-08-14T04:18:00,mnr,4.33
2023-08-14T04:19:00,mnr,4.79
2023-08-14T04:20:00,mnr,4.39
2023-08-14T04:21:00,mnr,5.41
2023-08-14T04:22:00,mnr,4.40
2023-08-14T04:23:00,mnr,4.44
2023-08-14T04:24:00,mnr,4.41
2023-08-14T04:25:00,mnr,4.53
2023-08-14T04:26:00,mnr,4.89
2023-08-14T04:27:00,mnr,4.54
2023-08-14T04:28:00,mnr,4.48
2023-08-14T04:29:00,mnr,4.47
2023-08-14T04:30:00,mnr,4.85
2023-08-14T04:31:00,mnr,5.52
2023-08-14T04:32:00,mnr,5.59
2023-08-14T04:33:00,mnr,4.82
2023-08-14T04:34:00,mnr,6.02
2023-08-14T04:35:00,mnr,5.55
2023-08-14T04:36:00,mnr,5.60
2023-08-14T04:37:00,mnr,4.90
2023-08-14T04:38:00,mnr,4.91
2023-08-14T04:39:00,mnr,5.55
2023-08-14T04:40:00,mnr,5.68
2023-08-14T04:41:00,mnr,5.07
2023-08-14T04:42:00,mnr,5.03
2023-08-14T04:43:00,mnr,5.04
2023-08-14T04:44:00,mnr,5.14
2023-08-14T04:45:00,mnr,5.65
2023-08-14T04:46:00,mnr,4.97
2023-08-14T04:47:00,mnr,4.96
2023-08-14T04:48:00,mnr,4.91
2023-08-14T04:49:00,mnr,5.11
2023-08-14T04:50:00,mnr,6.07
2023-08-14T04:51:00,mnr,4.97
2023-08-14T04:52:00,mnr,4.99
2023-08-14T04:53:00,mnr,4.99
2023-08-14T04:54:00,mnr,4.96
2023-08-14T04:55:00,mnr,5.66
2023-08-14T04:56:00,mnr,5.47
2023-08-14T04:57:00,mnr,4.93
2023-08-14T04:58:00,mnr,5.04
2023-08-14T04:59:00,mnr,5.66
2023-08-14T05:00:00,mnr,4.87
2023-08-14T05:01:00,mnr,4.87
2023-08-14T05:02:00,mnr,5.02
2023-08-14T05:03:00,mnr,4.98
2023-08-14T05:04:00,mnr,4.95
2023-08-14T05:05:00,mnr,5.46
2023-08-14T05:06:00,mnr,4.85
2023-08-14T05:07:00,mnr,4.93
2023-08-14T05:08:00,mnr,5.09
2023-08-14T05:09:00,mnr,4.46
2023-08-14T05:10:00,mnr,4.41
2023-08-14T05:11:00,mnr,4.44
2023-08-14T05:12:00,mnr,4.41
2023-08-14T05:13:00,mnr,4.59
2023-08-14T05:14:00,mnr,4.43
2023-08-14T05:15:00,mnr,5.02
2023-08-14T05:16:00,mnr,4.47
2023-08-14T05:17:00,mnr,4.46
2023-08-14T05:18:00,mnr,5.23
2023-08-14T05:19:00,mnr,4.40
2023-08-14T05:20:00,mnr,4.44
2023-08-14T05:21:00,mnr,4.38
2023-08-14T05:22:00,mnr,4.35
2023-08-14T05:23:00,mnr,4.30
2023-08-14T05:24:00,mnr,4.28
2023-08-14T05:25:00,mnr,4.28
2023-08-14T05:26:00,mnr,4.26
2023-08-14T05:27:00,mnr,4.30
2023-08-14T05:28:00,mnr,4.82
2023-08-14T05:29:00,mnr,4.29
2023-08-14T05:30:00,mnr,4.31
2023-08-14T05:31:00,mnr,4.97
2023-08-14T05:32:00,mnr,5.73
2023-08-14T05:33:00,mnr,6.33
2023-08-14T05:34:00,mnr,6.94
2023-08-14T05:35:00,mnr,7.04
2023-08-14T05:36:00,mnr,7.06
2023-08-14T05:37:00,mnr,7.70
2023-08-14T05:38:00,mnr,7.14
2023-08-14T05:39:00,mnr,8.12
2023-08-14T05:40:00,mnr,7.08
2023-08-14T05:41:00,mnr,7.82
2023-08-14T05:42:00,mnr,7.87
2023-08-14T05:43:00,mnr,7.81
2023-08-14T05:44:00,mnr,7.13
2023-08-14T05:45:00,mnr,7.16
2023-08-14T05:46:00,mnr,7.15
2023-08-14T05:47:00,mnr,7.14
2023-08-14T05:48:00,mnr,7.97
2023-08-14T05:49:00,mnr,8.32
2023-08-14T05:50:00,mnr,7.11
2023-08-14T05:51:00,mnr,7.60
2023-08-14T05:52:00,mnr,7.36
2023-08-14T05:53:00,mnr,8.08
2023-08-14T05:54:00,mnr,8.35
2023-08-14T05:55:00,mnr,8.33
2023-08-14T05:56:00,mnr,8.84
2023-08-14T05:57:00,mnr,8.73
2023-08-14T05:58:00,mnr,8.74
2023-08-14T05:59:00,mnr,9.39
2023-08-14T06:00:00,mnr,8.82
2023-08-14T06:01:00,mnr,10.01
2023-08-14T06:02:00,mnr,10.49
2023-08-14T06:03:00,mnr,11.35
2023-08-14T06:04:00,mnr,11.80
2023-08-14T06:05:00,mnr,13.35
2023-08-14T06:06:00,mnr,15.52
2023-08-14T06:07:00,mnr,16.78
2023-08-14T06:08:00,mnr,15.72
2023-08-14T06:09:00,mnr,15.16
2023-08-14T06:10:00,mnr,14.79
2023-08-14T06:11:00,mnr,14.73
2023-08-14T06:12:00,mnr,14.71
2023-08-14T06:13:00,mnr,14.69
2023-08-14T06:14:00,mnr,14.12
2023-08-14T06:15:00,mnr,14.72
2023-08-14T06:16:00,mnr,14.62
2023-08-14T06:17:00,mnr,14.59
2023-08-14T06:18:00,mnr,15.28
2023-08-14T06:19:00,mnr,14.50
2023-08-14T06:20:00,mnr,14.48
2023-08-14T06:21:00,mnr,14.60
2023-08-14T06:22:00,mnr,15.11
2023-08-14T06:23:00,mnr,14.31
2023-08-14T06:24:00,mnr,13.08
2023-08-14T06:25:00,mnr,13.01
2023-08-14T06:26:00,mnr,12.91
2023-08-14T06:27:00,mnr,13.20
2023-08-14T06:28:00,mnr,12.81
2023-08-14T06:29:00,mnr,13.44
2023-08-14T06:30:00,mnr,13.99
2023-08-14T06:31:00,mnr,13.38
2023-08-14T06:32:00,mnr,24.89
2023-08-14T06:33:00,mnr,14.50
2023-08-14T06:34:00,mnr,14.23
2023-08-14T06:35:00,mnr,11.25
2023-08-14T06:36:00,mnr,14.42
2023-08-14T06:37:00,mnr,14.40
2023-08-14T06:38:00,mnr,15.19
2023-08-14T06:39:00,mnr,14.94
2023-08-14T06:40:00,mnr,14.43
2023-08-14T06:41:00,mnr,13.65
2023-08-14T06:42:00,mnr,14.30
2023-08-14T06:43:00,mnr,14.12
2023-08-14T06:44:00,mnr,13.81
2023-08-14T06:45:00,mnr,13.97
2023-08-14T06:46:00,mnr,14.20
2023-08-14T06:47:00,mnr,14.17
2023-08-14T06:48:00,mnr,14.22
2023-08-14T06:49:00,mnr,14.62
2023-08-14T06:50:00,mnr,14.58
2023-08-14T06:51:00,mnr,13.92
2023-08-14T06:52:00,mnr,13.93
2023-08-14T06:53:00,mnr,14.57
2023-08-14T06:54:00,mnr,14.66
2023-08-14T06:55:00,mnr,14.65
2023-08-14T06:56:00,mnr,13.94
2023-08-14T06:57:00,mnr,13.37
2023-08-14T06:58:00,mnr,13.28
2023-08-14T06:59:00,mnr,13.96
2023-08-14T07:00:00,mnr,13.90
2023-08-14T07:01:00,mnr,13.84
2023-08-14T07:02:00,mnr,13.93
2023-08-14T07:03:00,mnr,12.84
2023-08-14T07:04:00,mnr,12.76
2023-08-14T07:05:00,mnr,12.17
2023-08-14T07:06:00,mnr,12.18
2023-08-14T07:07:00,mnr,12.11
2023-08-14T07:08:00,mnr,11.96
2023-08-14T07:09:00,mnr,12.54
2023-08-14T07:10:00,mnr,11.86
2023-08-14T07:11:00,mnr,12.07
2023-08-14T07:12:00,mnr,12.02
2023-08-14T07:13:00,mnr,11.95
2023-08-14T07:14:00,mnr,11.34
2023-08-14T07:15:00,mnr,12.24
2023-08-14T07:16:00,mnr,11.32
2023-08-14T07:17:00,mnr,11.22
2023-08-14T07:18:00,mnr,11.63
2023-08-14T07:19:00,mnr,11.44
2023-08-14T07:20:00,mnr,10.95
2023-08-14T07:21:00,mnr,11.10
2023-08-14T07:22:00,mnr,10.73
2023-08-14T07:23:00,mnr,10.83
2023-08-14T07:24:00,mnr,11.50
2023-08-14T07:25:00,mnr,11.26
2023-08-14T07:26:00,mnr,10.72
2023-08-14T07:27:00,mnr,11.98
2023-08-14T07:28:00,mnr,11.89
2023-08-14T07:29:00,mnr,11.93
2023-08-14T07:30:00,mnr,11.94
2023-08-14T07:31:00,mnr,12.46
2023-08-14T07:32:00,mnr,13.46
2023-08-14T07:33:00,mnr,14.18
2023-08-14T07:34:00,mnr,14.90
2023-08-14T07:35:00,mnr,14.11
2023-08-14T07:36:00,mnr,14.15
2023-08-14T07:37:00,mnr,14.17
2023-08-14T07:38:00,mnr,14.20
2023-08-14T07:39:00,mnr,14.93
2023-08-14T07:40:00,mnr,14.38
2023-08-14T07:41:00,mnr,14.29
2023-08-14T07:42:00,mnr,14.26
2023-08-14T07:43:00,mnr,15.28
2023-08-14T07:44:00,mnr,14.79
2023-08-14T07:45:00,mnr,14.91
2023-08-14T07:46:00,mnr,15.33
2023-08-14T07:47:00,mnr,15.81
2023-08-14T07:48:00,mnr,15.04
2023-08-14T07:49:00,mnr,15.79
2023-08-14T07:50:00,mnr,15.10
2023-08-14T07:51:00,mnr,16.04
2023-08-14T07:52:00,mnr,14.98
2023-08-14T07:53:00,mnr,14.91
2023-08-14T07:54:00,mnr,14.99
2023-08-14T07:55:00,mnr,14.94
2023-08-14T07:56:00,mnr,14.81
2023-08-14T07:57:00,mnr,14.83
2023-08-14T07:58:00,mnr,14.81
2023-08-14T07:59:00,mnr,11.67
2023-08-14T08:00:00,mnr,12.17
2023-08-14T08:01:00,mnr,14.84
2023-08-14T08:02:00,mnr,15.87
2023-08-14T08:03:00,mnr,17.88
2023-08-14T08:04:00,mnr,16.36
2023-08-14T08:05:00,mnr,15.90
2023-08-14T08:06:00,mnr,16.42
2023-08-14T08:07:00,mnr,15.13
2023-08-14T08:08:00,mnr,15.30
2023-08-14T08:09:00,mnr,15.29
2023-08-14T08:10:00,mnr,15.22
2023-08-14T08:11:00,mnr,13.48
2023-08-14T08:12:00,mnr,14.06
2023-08-14T08:13:00,mnr,13.42
2023-08-14T08:14:00,mnr,13.64
2023-08-14T08:15:00,mnr,13.32
2023-08-14T08:16:00,mnr,13.71
2023-08-14T08:17:00,mnr,13.08
2023-08-14T08:18:00,mnr,13.10
2023-08-14T08:19:00,mnr,13.21
2023-08-14T08:20:00,mnr,12.73
2023-08-14T08:21:00,mnr,12.83
2023-08-14T08:22:00,mnr,13.58
2023-08-14T08:23:00,mnr,12.87
2023-08-14T08:24:00,mnr,12.84
2023-08-14T08:25:00,mnr,12.86
2023-08-14T08:26:00,mnr,12.79
2023-08-14T08:27:00,mnr,12.87
2023-08-14T08:28:00,mnr,12.83
2023-08-14T08:29:00,mnr,12.82
2023-08-14T08:30:00,mnr,13.38
2023-08-14T08:31:00,mnr,12.71
2023-08-14T08:32:00,mnr,12.75
2023-08-14T08:33:00,mnr,12.72
2023-08-14T08:34:00,mnr,13.43
2023-08-14T08:35:00,mnr,12.57
2023-08-14T08:36:00,mnr,12.65
2023-08-14T08:37:00,mnr,12.61
2023-08-14T08:38:00,mnr,12.71
2023-08-14T08:39:00,mnr,12.81
2023-08-14T08:40:00,mnr,12.72
2023-08-14T08:41:00,mnr,13.32
2023-08-14T08:42:00,mnr,13.68
2023-08-14T08:43:00,mnr,13.93
2023-08-14T08:44:00,mnr,13.79
2023-08-14T08:45:00,mnr,13.95
2023-08-14T08:46:00,mnr,13.80
2023-08-14T08:47:00,mnr,14.18
2023-08-14T08:48:00,mnr,15.20
2023-08-14T08:49:00,mnr,15.31
2023-08-14T08:50:00,mnr,16.74
2023-08-14T08:51:00,mnr,16.60
2023-08-14T08:52:00,mnr,26.74
2023-08-14T08:53:00,mnr,15.70
2023-08-14T08:54:00,mnr,16.44
2023-08-14T08:55:00,mnr,16.40
2023-08-14T08:56:00,mnr,16.35
2023-08-14T08:57:00,mnr,16.85
2023-08-14T08:58:00,mnr,17.11
2023-08-14T08:59:00,mnr,17.36
2023-08-14T09:00:00,mnr,19.85
2023-08-14T09:01:00,mnr,18.72
2023-08-14T09:02:00,mnr,18.76
2023-08-14T09:03:00,mnr,18.96
2023-08-14T09:04:00,mnr,19.09
2023-08-14T09:05:00,mnr,19.06
2023-08-14T09:06:00,mnr,19.31
2023-08-14T09:07:00,mnr,14.99
2023-08-14T09:08:00,mnr,19.16
2023-08-14T09:09:00,mnr,18.92
2023-08-14T09:10:00,mnr,18.94
2023-08-14T09:11:00,mnr,19.16
2023-08-14T09:12:00,mnr,18.84
2023-08-14T09:13:00,mnr,20.74
2023-08-14T09:14:00,mnr,20.01
2023-08-14T09:15:00,mnr,21.07
2023-08-14T09:16:00,mnr,19.27
2023-08-14T09:17:00,mnr,19.72
2023-08-14T09:18:00,mnr,19.53
2023-08-14T09:19:00,mnr,19.09
2023-08-14T09:20:00,mnr,20.59
2023-08-14T09:21:00,mnr,19.10
2023-08-14T09:22:00,mnr,19.03
2023-08-14T09:23:00,mnr,20.05
2023-08-14T09:24:00,mnr,19.57
2023-08-14T09:25:00,mnr,19.76
2023-08-14T09:26:00,mnr,20.15
2023-08-14T09:27:00,mnr,21.01
2023-08-14T09:28:00,mnr,20.67
2023-08-14T09:29:00,mnr,21.36
2023-08-14T09:30:00,mnr,20.40
2023-08-14T09:31:00,mnr,20.65
2023-08-14T09:32:00,mnr,20.48
2023-08-14T09:33:00,mnr,21.69
2023-08-14T09:34:00,mnr,20.30
2023-08-14T09:35:00,mnr,20.37
2023-08-14T09:36:00,mnr,21.08
2023-08-14T09:37:00,mnr,19.92
2023-08-14T09:38:00,mnr,20.40
2023-08-14T09:39:00,mnr,20.74
2023-08-14T09:40:00,mnr,20.29
2023-08-14T09:41:00,mnr,21.26
2023-08-14T09:42:00,mnr,19.47
2023-08-14T09:43:00,mnr,20.49
2023-08-14T09:44:00,mnr,19.29
2023-08-14T09:45:00,mnr,19.36
2023-08-14T09:46:00,mnr,18.60
2023-08-14T09:47:00,mnr,18.66
2023-08-14T09:48:00,mnr,18.35
2023-08-14T09:49:00,mnr,18.07
2023-08-14T09:50:00,mnr,18.28
2023-08-14T09:51:00,mnr,18.80
2023-08-14T09:52:00,mnr,19.36
2023-08-14T09:53:00,mnr,24.91
2023-08-14T09:54:00,mnr,21.85
2023-08-14T09:55:00,mnr,19.70
2023-08-14T09:56:00,mnr,19.89
2023-08-14T09:57:00,mnr,20.07
2023-08-14T09:58:00,mnr,20.12
2023-08-14T09:59:00,mnr,19.89
2023-08-14T10:00:00,mnr,21.37
2023-08-14T10:01:00,mnr,20.52
2023-08-14T10:02:00,mnr,20.35
2023-08-14T10:03:00,mnr,20.01
2023-08-14T10:04:00,mnr,20.02
2023-08-14T10:05:00,mnr,20.29
2023-08-14T10:06:00,mnr,20.14
2023-08-14T10:07:00,mnr,20.00
2023-08-14T10:08:00,mnr,20.00
2023-08-14T10:09:00,mnr,19.75
2023-08-14T10:10:00,mnr,20.01
2023-08-14T10:11:00,mnr,19.89
2023-08-14T10:12:00,mnr,20.51
2023-08-14T10:13:00,mnr,20.24
2023-08-14T10:14:00,mnr,17.17
2023-08-14T10:15:00,mnr,22.98
2023-08-14T10:16:00,mnr,20.26
2023-08-14T10:17:00,mnr,20.28
2023-08-14T10:18:00,mnr,19.77
2023-08-14T10:19:00,mnr,19.80
2023-08-14T10:20:00,mnr,19.75
2023-08-14T10:21:00,mnr,19.77
2023-08-14T10:22:00,mnr,20.93
2023-08-14T10:23:00,mnr,20.00
2023-08-14T10:24:00,mnr,19.88
2023-08-14T10:25:00,mnr,19.79
2023-08-14T10:26:00,mnr,19.76
2023-08-14T10:27:00,mnr,19.78
2023-08-14T10:28:00,mnr,19.80
2023-08-14T10:29:00,mnr,20.06
2023-08-14T10:30:00,mnr,19.09
2023-08-14T10:31:00,mnr,19.29
2023-08-14T10:32:00,mnr,19.81
2023-08-14T10:33:00,mnr,20.49
2023-08-14T10:34:00,mnr,19.58
2023-08-14T10:35:00,mnr,19.81
2023-08-14T10:36:00,mnr,19.59
2023-08-14T10:37:00,mnr,19.51
2023-08-14T10:38:00,mnr,19.65
2023-08-14T10:39:00,mnr,19.66
2023-08-14T10:40:00,mnr,19.92
2023-08-14T10:41:00,mnr,19.76
2023-08-14T10:42:00,mnr,19.85
2023-08-14T10:43:00,mnr,21.37
2023-08-14T10:44:00,mnr,20.16
2023-08-14T10:45:00,mnr,19.61
2023-08-14T10:46:00,mnr,19.69
2023-08-14T10:47:00,mnr,19.01
2023-08-14T10:48:00,mnr,18.99
2023-08-14T10:49:00,mnr,18.42
2023-08-14T10:50:00,mnr,18.41
2023-08-14T10:51:00,mnr,19.54
2023-08-14T10:52:00,mnr,19.01
2023-08-14T10:53:00,mnr,20.50
2023-08-14T10:54:00,mnr,20.12
2023-08-14T10:55:00,mnr,21.47
2023-08-14T10:56:00,mnr,22.60
2023-08-14T10:57:00,mnr,21.75
2023-08-14T10:58:00,mnr,19.52
2023-08-14T10:59:00,mnr,19.60
2023-08-14T11:00:00,mnr,19.62
2023-08-14T11:01:00,mnr,19.52
2023-08-14T11:02:00,mnr,19.74
2023-08-14T11:03:00,mnr,19.60
2023-08-14T11:04:00,mnr,21.35
2023-08-14T11:05:00,mnr,20.00
2023-08-14T11:06:00,mnr,22.03
2023-08-14T11:07:00,mnr,19.40
2023-08-14T11:08:00,mnr,20.19
2023-08-14T11:09:00,mnr,19.57
2023-08-14T11:10:00,mnr,19.69
2023-08-14T11:11:00,mnr,20.24
2023-08-14T11:12:00,mnr,19.73
2023-08-14T11:13:00,mnr,20.52
2023-08-14T11:14:00,mnr,21.31
2023-08-14T11:15:00,mnr,20.83
2023-08-14T11:16:00,mnr,20.72
2023-08-14T11:17:00,mnr,21.14
2023-08-14T11:18:00,mnr,19.96
2023-08-14T11:19:00,mnr,20.26
2023-08-14T11:20:00,mnr,21.03
2023-08-14T11:21:00,mnr,22.96
2023-08-14T11:22:00,mnr,25.26
2023-08-14T11:23:00,mnr,28.06
2023-08-14T11:24:00,mnr,28.92
2023-08-14T11:25:00,mnr,31.43
2023-08-14T11:26:00,mnr,32.73
2023-08-14T11:27:00,mnr,31.47
2023-08-14T11:28:00,mnr,21.01
2023-08-14T11:29:00,mnr,18.22
2023-08-14T11:30:00,mnr,17.98
2023-08-14T11:31:00,mnr,17.99
2023-08-14T11:32:00,mnr,18.13
2023-08-14T11:33:00,mnr,17.72
2023-08-14T11:34:00,mnr,17.97
2023-08-14T11:35:00,mnr,18.93
2023-08-14T11:36:00,mnr,19.30
2023-08-14T11:37:00,mnr,18.87
2023-08-14T11:38:00,mnr,18.71
2023-08-14T11:39:00,mnr,18.85
2023-08-14T11:40:00,mnr,18.85
2023-08-14T11:41:00,mnr,18.82
2023-08-14T11:42:00,mnr,18.20
2023-08-14T11:43:00,mnr,18.81
2023-08-14T11:44:00,mnr,18.12
2023-08-14T11:45:00,mnr,17.53
2023-08-14T11:46:00,mnr,17.37
2023-08-14T11:47:00,mnr,17.51
2023-08-14T11:48:00,mnr,19.10
2023-08-14T11:49:00,mnr,17.87
2023-08-14T11:50:00,mnr,17.23
2023-08-14T11:51:00,mnr,17.63
2023-08-14T11:52:00,mnr,27.10
2023-08-14T11:53:00,mnr,17.54
2023-08-14T11:54:00,mnr,20.03
2023-08-14T11:55:00,mnr,20.88
2023-08-14T11:56:00,mnr,17.48
2023-08-14T11:57:00,mnr,17.78
2023-08-14T11:58:00,mnr,17.39
2023-08-14T11:59:00,mnr,17.24
2023-08-14T12:00:00,mnr,17.24
2023-08-14T12:01:00,mnr,18.04
2023-08-14T12:02:00,mnr,17.86
2023-08-14T12:03:00,mnr,19.37
2023-08-14T12:04:00,mnr,19.76
2023-08-14T12:05:00,mnr,18.07
2023-08-14T12:06:00,mnr,18.79
2023-08-14T12:07:00,mnr,19.58
2023-08-14T12:08:00,mnr,17.63
2023-08-14T12:09:00,mnr,19.67
2023-08-14T12:10:00,mnr,15.93
2023-08-14T12:11:00,mnr,16.73
2023-08-14T12:12:00,mnr,16.12
2023-08-14T12:13:00,mnr,16.59
2023-08-14T12:14:00,mnr,16.34
2023-08-14T12:15:00,mnr,16.37
2023-08-14T12:16:00,mnr,17.04
2023-08-14T12:17:00,mnr,16.71
2023-08-14T12:18:00,mnr,17.66
2023-08-14T12:19:00,mnr,18.75
2023-08-14T12:20:00,mnr,18.04
2023-08-14T12:21:00,mnr,18.43
2023-08-14T12:22:00,mnr,17.50
2023-08-14T12:23:00,mnr,18.06
2023-08-14T12:24:00,mnr,17.44
2023-08-14T12:25:00,mnr,17.49
2023-08-14T12:26:00,mnr,17.47
2023-08-14T12:27:00,mnr,18.14
2023-08-14T12:28:00,mnr,17.93
2023-08-14T12:29:00,mnr,17.68
2023-08-14T12:30:00,mnr,19.66
2023-08-14T12:31:00,mnr,18.67
2023-08-14T12:32:00,mnr,18.54
2023-08-14T12:33:00,mnr,19.23
2023-08-14T12:34:00,mnr,19.12
2023-08-14T12:35:00,mnr,19.88
2023-08-14T12:36:00,mnr,17.59
2023-08-14T12:37:00,mnr,17.51
2023-08-14T12:38:00,mnr,17.57
2023-08-14T12:39:00,mnr,17.47
2023-08-14T12:40:00,mnr,17.42
2023-08-14T12:41:00,mnr,17.43
2023-08-14T12:42:00,mnr,16.05
2023-08-14T12:43:00,mnr,16.48
2023-08-14T12:44:00,mnr,16.17
2023-08-14T12:45:00,mnr,15.45
2023-08-14T12:46:00,mnr,16.07
2023-08-14T12:47:00,mnr,15.67
2023-08-14T12:48:00,mnr,15.17
2023-08-14T12:49:00,mnr,15.21
2023-08-14T12:50:00,mnr,15.19
2023-08-14T12:51:00,mnr,15.10
2023-08-14T12:52:00,mnr,15.00
2023-08-14T12:53:00,mnr,15.45
2023-08-14T12:54:00,mnr,15.50
2023-08-14T12:55:00,mnr,15.61
2023-08-14T12:56:00,mnr,15.73
2023-08-14T12:57:00,mnr,16.32
2023-08-14T12:58:00,mnr,15.57
2023-08-14T12:59:00,mnr,18.11
2023-08-14T13:00:00,mnr,16.81
2023-08-14T13:01:00,mnr,16.87
2023-08-14T13:02:00,mnr,16.87
2023-08-14T13:03:00,mnr,16.97
2023-08-14T13:04:00,mnr,16.88
2023-08-14T13:05:00,mnr,16.74
2023-08-14T13:06:00,mnr,16.72
2023-08-14T13:07:00,mnr,16.28
2023-08-14T13:08:00,mnr,16.30
2023-08-14T13:09:00,mnr,18.30
2023-08-14T13:10:00,mnr,20.01
2023-08-14T13:11:00,mnr,22.10
2023-08-14T13:12:00,mnr,21.98
2023-08-14T13:13:00,mnr,23.34
2023-08-14T13:14:00,mnr,22.62
2023-08-14T13:15:00,mnr,24.11
2023-08-14T13:16:00,mnr,25.57
2023-08-14T13:17:00,mnr,17.33
2023-08-14T13:18:00,mnr,16.18
2023-08-14T13:19:00,mnr,16.04
2023-08-14T13:20:00,mnr,16.69
2023-08-14T13:21:00,mnr,15.88
2023-08-14T13:22:00,mnr,16.00
2023-08-14T13:23:00,mnr,15.88
2023-08-14T13:24:00,mnr,15.75
2023-08-14T13:25:00,mnr,16.21
2023-08-14T13:26:00,mnr,15.84
2023-08-14T13:27:00,mnr,15.72
2023-08-14T13:28:00,mnr,16.31
2023-08-14T13:29:00,mnr,15.77
2023-08-14T13:30:00,mnr,16.07